Das Wetter in  D-61279 Heinzenberg / Taunus





Wetter Minimum- & Maximum-Werte im Februar 2009

Standort: Heinzenberg / Taunus - Höhe 297 m         8 24' 1" Ost 50 21' 51" Nord
(   3-stündige Aktualisierung    letzte Aktualisierung um 19:04 am 28.02.2009  )


Messgrösse

Minimum

Maximum

Durchschnitt

Temperatur West /
Luftfeuchte West
Anklicken für Monats-Diagramm

-11,2 C

07:07
15.02.2009

47 %

14:26
19.02.2009

11,1 C

15:42
28.02.2009

96 %

07:59
17.02.2009

Temp

0,9 C

Feuchte

85 %

Temperatur Ost /
Luftfeuchte Ost
Anklicken für Monats-Diagramm

-10,8 C

07:07
15.02.2009

--

--
--

11,2 C

15:47
28.02.2009

--

--
--

1,1 C

--

Luftdruck Anklicken für Monats-Diagramm

983,1 hPa

08:43
10.02.2009

1032,3 hPa

11:42
21.02.2009

1014,8 hPa

Taupunkt

-13,1 C

06:57
15.02.2009

7,1 C

14:47
28.02.2009

-1,4 C

Windchill
( gefühlte Temperatur )

-18,9 C

18:38
10.02.2009

11,1 C

15:42
28.02.2009

-2,2 C

Windgeschwindigkeit /
Windrichtung
Anklicken für Monats-Diagramm

---

62,7 km/h / W-SW

12:03
10.02.2009

8,3 km/h
W

Helligkeit /
Sonnenschein
Anklicken für Monats-Diagramm
Anklicken für Monats-Diagramm

Sonnenschein:

62:30 Stunden

Max: 8:25 Std am
18.02.2009

83,0 klux

12:52
28.02.2009

15,8 klux

Solarstrahlung Anklicken für Monats-Diagramm

---

568 W/m

12:52
28.02.2009

119 W/m

Regenmenge
    Februar 2009
Anklicken für Monats-Diagramm

Insgesamt 42,7 l/m

in 99:38 Stunden
an 24 Tagen

12,9 l/m

00:03
10.02.2009

Gesamtmenge

42,7 l/m

Regen-Tage
    Februar 2009
Anklicken für Monats-Diagramm

>   0 mm/Tag

>   2 mm/Tag

>   5 mm/Tag

> 10 mm/Tag

> 20 mm/Tag

24 Tage     
6 Tage     
2 Tage     
  1 Tag     
0 Tage     

Eisige Tage Februar 2009 / 2008

Tmin ≤ -10C     

  1 Tag

/

0 Tage

Eistage Februar 2009 / 2008

Tmax <     0C     

  1 Tag

/

0 Tage

Frosttage Februar 2009 / 2008

Tmin ≤     0C     

22 Tage

/

19 Tage

Kalte Tage Februar 2009 / 2008

Tmax <   10C     

27 Tage

/

16 Tage

Warme Tage Februar 2009 / 2008

Tmax ≥   20C     

0 Tage

/

0 Tage

Sommertage Februar 2009 / 2008

Tmax ≥   25C     

0 Tage

/

0 Tage

Heisse Tage Februar 2009 / 2008

Tmax ≥   30C     

0 Tage

/

0 Tage


Monatsdiagramm Februar 2009

Die Kurven zeigen den Durchschnittswert des jeweiligen Tages an


Wetter-Monatsübersicht Februar 2009
Datum
  Temperatur
   Luftdruck
   Wind
  Regen
   Luftfeuchte
   Helligkeit

Sonnen-
schein


Temp.

Min.
Temp.

Max.
Temp.


Luftdruck

Min.
Luftdruck

Max.
Luftdruck

-Geschw.
Haupt-Richtg.

Max.
Wind

Menge /
Dauer


Feuchte

Min.
Feuchte

Max.
Feuchte


Helligkeit

Max.
Helligkeit

1.
Februar
-2,1 C-3,8 C
08:34
-0,2 C
14:49
1011,1 hPa1007,1 hPa
23:25
1017,3 hPa
00:09
8,5 km/h
NO
25,8 km/h
17:29  
---
71 %66 %
14:34
76 %
09:49
11,1 klux36,4 klux
10:49
15 Min 
2.
Februar
-0,4 C-3,8 C
02:25
6,0 C
14:25
1003,3 hPa1000,0 hPa
16:15
1007,1 hPa
00:00
4,8 km/h
O-SO
28,2 km/h
10:35  
---
74 %61 %
14:30
83 %
23:26
19,0 klux42,9 klux
14:00
4:20 Std 
3.
Februar
-1,1 C-5,4 C
07:51
7,6 C
14:21
1001,1 hPa999,6 hPa
14:21
1002,3 hPa
07:51
1,8 km/h
SO
9,4 km/h
03:31  
---
15 Minuten
83 %68 %
15:01
90 %
11:51
23,5 klux54,9 klux
11:46
5:55 Std 
4.
Februar
0,5 C-3,0 C
00:17
4,3 C
15:27
999,2 hPa996,9 hPa
15:27
1000,9 hPa
00:17
0,9 km/h
O
13,0 km/h
17:12  
---
1:40 Stunden
88 %85 %
15:37
92 %
12:02
10,2 klux39,5 klux
15:02
26 Min 
5.
Februar
0,6 C-3,4 C
05:38
8,4 C
15:28
997,9 hPa996,4 hPa
15:28
999,8 hPa
03:18
4,3 km/h
W-SW
28,9 km/h
13:28  
---
1:50 Stunden
88 %74 %
15:33
93 %
10:58
13,4 klux58,8 klux
11:48
1:55 Std 
6.
Februar
1,7 C-2,0 C
01:29
8,1 C
14:49
994,7 hPa990,8 hPa
20:59
997,7 hPa
01:29
1,4 km/h
O-SO
17,7 km/h
13:49  
---
2:10 Stunden
89 %79 %
14:54
94 %
12:14
18,1 klux58,7 klux
13:09
3:05 Std 
7.
Februar
1,3 C-0,7 C
04:15
3,5 C
14:55
990,7 hPa988,7 hPa
14:55
996,3 hPa
23:51
4,1 km/h
W-NW
20,0 km/h
21:45  
7,6 l/m
14:10 Stunden
93 %90 %
00:00
95 %
17:35
4,4 klux12,2 klux
12:15
--- 
8.
Februar
0,5 C-0,8 C
06:41
3,3 C
15:06
1003,7 hPa996,3 hPa
00:01
1008,9 hPa
23:37
11,4 km/h
W
22,0 km/h
17:31  
---
10 Minuten
84 %75 %
15:56
94 %
00:01
9,4 klux57,3 klux
11:31
25 Min 
9.
Februar
-0,2 C-1,8 C
05:32
0,9 C
15:32
1006,8 hPa997,4 hPa
23:43
1010,0 hPa
11:17
10,6 km/h
W-SW
23,6 km/h
15:42  
3,8 l/m
4:31 Stunden
85 %78 %
00:12
91 %
22:38
8,0 klux21,6 klux
12:37
--- 
10.
Februar
2,8 C-0,2 C
17:33
6,5 C
06:43
991,8 hPa983,1 hPa
08:43
1004,6 hPa
23:09
30,9 km/h
W-SW
62,7 km/h
12:03  
12,9 l/m
14:10 Stunden
91 %79 %
12:03
94 %
02:23
6,0 klux21,0 klux
11:53
--- 
11.
Februar
0,5 C-0,9 C
08:44
3,0 C
13:34
1012,0 hPa1004,6 hPa
00:04
1015,0 hPa
18:14
18,3 km/h
W-NW
33,3 km/h
02:54  
2,7 l/m
3:10 Stunden
88 %78 %
13:59
93 %
07:04
26,8 klux76,8 klux
13:04
4:50 Std 
12.
Februar
-1,2 C-3,8 C
07:34
1,9 C
14:09
1018,0 hPa1013,0 hPa
00:04
1021,5 hPa
21:39
4,4 km/h
W-NW
25,6 km/h
14:14  
1,7 l/m
2:05 Stunden
89 %83 %
16:14
92 %
00:19
22,5 klux73,9 klux
12:34
3:50 Std 
13.
Februar
-0,5 C-2,0 C
00:15
1,3 C
13:40
1019,9 hPa1019,1 hPa
15:45
1020,5 hPa
00:15
7,2 km/h
W
21,1 km/h
15:25  
1,5 l/m
4:19 Stunden
90 %87 %
11:30
93 %
22:56
15,9 klux50,6 klux
13:15
1:30 Std 
14.
Februar
-1,6 C-7,1 C
23:56
3,3 C
15:11
1025,0 hPa1019,3 hPa
00:01
1031,6 hPa
23:56
2,6 km/h
NW
21,3 km/h
15:16  
1,2 l/m
2:15 Stunden
84 %67 %
16:21
93 %
00:01
36,5 klux63,9 klux
12:01
7:50 Std 
15.
Februar
-4,7 C-11,2 C
07:07
0,6 C
14:42
1029,6 hPa1024,6 hPa
23:18
1032,2 hPa
07:07
5,2 km/h
W-SW
20,8 km/h
13:27  
---
82 %72 %
15:57
89 %
11:12
20,1 klux49,1 klux
11:57
3:40 Std 
16.
Februar
0,7 C-1,4 C
00:03
2,8 C
22:54
1022,0 hPa1017,8 hPa
23:49
1024,6 hPa
00:03
7,7 km/h
W
30,7 km/h
23:19  
2,7 l/m
10:21 Stunden
91 %85 %
00:03
95 %
21:48
8,1 klux29,1 klux
11:58
--- 
17.
Februar
1,3 C-5,0 C
23:50
5,8 C
11:39
1019,8 hPa1014,6 hPa
07:29
1029,2 hPa
23:55
9,1 km/h
W
27,6 km/h
00:14  
0,3 l/m
4:00 Stunden
90 %79 %
20:14
96 %
07:59
7,8 klux42,7 klux
11:24
20 Min 
18.
Februar
-4,2 C-8,5 C
07:40
2,5 C
16:00
1028,9 hPa1027,2 hPa
16:00
1030,8 hPa
07:40
1,8 km/h
SO
19,5 km/h
14:35  
---
78 %59 %
16:10
90 %
09:45
33,4 klux66,6 klux
12:20
8:25 Std 
19.
Februar
-2,2 C-7,9 C
00:56
5,2 C
15:11
1027,9 hPa1026,8 hPa
15:11
1029,2 hPa
09:16
4,6 km/h
W
24,1 km/h
16:06  
0,3 l/m
45 Minuten
72 %47 %
14:26
86 %
07:46
32,7 klux62,6 klux
12:41
7:05 Std 
20.
Februar
1,5 C-1,0 C
00:01
3,1 C
15:46
1027,7 hPa1027,1 hPa
15:46
1029,3 hPa
22:37
7,2 km/h
W
27,9 km/h
11:11  
0,9 l/m
7:55 Stunden
91 %83 %
00:01
94 %
17:01
7,6 klux26,2 klux
11:26
--- 
21.
Februar
2,4 C0,8 C
23:53
4,3 C
15:12
1030,9 hPa1029,3 hPa
00:02
1032,3 hPa
11:42
2,4 km/h
W-NW
15,1 km/h
15:47  
0,8 l/m
2:06 Stunden
91 %84 %
16:27
94 %
00:02
8,7 klux27,6 klux
12:37
--- 
22.
Februar
3,2 C0,7 C
00:08
5,2 C
15:53
1022,9 hPa1019,7 hPa
20:03
1029,5 hPa
00:08
13,5 km/h
W
28,5 km/h
20:03  
4,9 l/m
7:40 Stunden
94 %91 %
00:03
95 %
09:38
5,5 klux21,3 klux
13:28
--- 
23.
Februar
3,3 C1,9 C
05:49
6,7 C
16:14
1018,2 hPa1016,2 hPa
16:14
1019,9 hPa
23:54
16,4 km/h
W-NW
30,3 km/h
13:29  
1,2 l/m
7:05 Stunden
91 %81 %
16:44
94 %
00:04
13,8 klux53,7 klux
14:59
1:20 Std 
24.
Februar
2,6 C-1,6 C
23:55
5,8 C
13:49
1025,1 hPa1020,0 hPa
00:04
1030,8 hPa
23:55
3,7 km/h
NW
16,3 km/h
12:29  
---
10 Minuten
84 %72 %
14:09
91 %
00:04
13,2 klux69,6 klux
13:39
25 Min 
25.
Februar
1,6 C-3,0 C
07:30
7,0 C
13:55
1029,7 hPa1027,0 hPa
23:45
1032,1 hPa
07:45
5,1 km/h
W
26,3 km/h
11:15  
---
10 Minuten
80 %66 %
13:05
93 %
10:55
28,5 klux68,0 klux
12:05
5:40 Std 
26.
Februar
4,7 C3,2 C
03:40
7,0 C
15:50
1021,6 hPa1018,5 hPa
20:40
1027,0 hPa
00:00
20,0 km/h
W
36,5 km/h
12:55  
---
3:56 Stunden
81 %71 %
16:35
90 %
11:30
8,8 klux35,1 klux
12:10
--- 
27.
Februar
5,6 C4,0 C
07:11
8,0 C
13:06
1018,8 hPa1017,6 hPa
00:11
1019,7 hPa
08:01
21,1 km/h
W
36,1 km/h
10:01  
0,2 l/m
4:40 Stunden
88 %80 %
13:31
94 %
09:26
15,8 klux43,9 klux
12:56
49 Min 
28.
Februar
7,6 C4,5 C
23:23
11,1 C
15:42
1016,5 hPa1013,4 hPa
23:18
1019,5 hPa
00:02
4,7 km/h
W-SW
18,5 km/h
06:27  
---
5 Minuten
84 %75 %
15:47
90 %
00:02
13,9 klux83,0 klux
12:52
25 Min 



Februar
2009

Temperatur

  

Luftdruck

  

Wind

  

Regen

  

Luftfeuchte

  

Helligkeit

Sonnen-
schein

Min

Max

Min

Max

Max

Max

Min

Max

Max

Max

0,9 C

-11,2 C

07:07 Uhr
15.02.2009

11,1 C

15:42 Uhr
28.02.2009

1014,8 hPa

983,1 hPa

08:43 Uhr
10.02.2009

1032,3 hPa

11:42 Uhr
21.02.2009

8,3 km/h

W

62,7 km/h

12:03 Uhr
10.02.2009

12,9 l/m

14:10 Stunden
10.02.2009

85 %

47 %

14:26 Uhr
19.02.2009

96 %

07:59 Uhr
17.02.2009

15,8 klux

83,0 klux

12:52 Uhr
28.02.2009

8:25 Std

am
18.02.2009

Gesamt

Gesamt

42,7 l/m

24 Tage
99:38 h

62:30 Std


Wetter-Diagramme Februar 2009     Heinzenberg / Taunus   
TemperaturLuftfeuchte
SolarstrahlungLuftdruck
HelligkeitSonnenschein
RegenmengeRegendauer
Wind-GeschwindigkeitWind-Richtung